CW2101 Weather Reports


time (UTC)temp
C
wind
direction
speed
KPH
gust
KPH
rain 1hr
cm
rain 24hr
cm
rain mn
cm
humidity
%
barometer
mb
20260906115102 20 35 8.0 4.8 0.00 0.00 0.00 87 990.0
20260906114602 20 35 8.0 11.3 0.00 0.00 0.00 87 990.0
20260906114103 20 54 8.0 20.9 0.00 0.00 0.00 87 990.0
20260906113603 20 50 8.0 14.5 0.00 0.00 0.00 88 989.9
20260906113103 20 48 8.0 14.5 0.00 0.00 0.00 88 989.8
20260906112603 20 25 6.4 14.5 0.00 0.00 0.00 88 989.7
20260906112103 20 49 8.0 14.5 0.00 0.00 0.00 88 989.7
20260906111603 20 47 6.4 11.3 0.00 0.00 0.00 88 989.8
20260906111103 20 24 4.8 12.9 0.00 0.00 0.00 88 989.6
20260906110603 20 31 4.8 12.9 0.00 0.00 0.00 88 989.6
20260906110103 20 26 4.8 11.3 0.00 0.00 0.00 88 989.5
20260906105602 20 39 4.8 14.5 0.00 0.00 0.00 88 989.5
20260906104603 20 25 8.0 14.5 0.00 0.00 0.00 87 989.2
20260906104103 20 32 8.0 16.1 0.00 0.00 0.00 87 988.9
20260906103603 20 52 8.0 14.5 0.00 0.00 0.00 87 989.0
20260906103103 21 52 8.0 14.5 0.00 0.00 0.00 87 988.9
20260906102603 21 48 8.0 16.1 0.00 0.00 0.00 87 989.0
20260906095603 21 43 9.7 20.9 0.00 0.00 0.00 88 988.6
20260906095102 21 37 8.0 16.1 0.00 0.00 0.00 88 988.5
20260906094604 21 42 9.7 16.1 0.00 0.00 0.00 89 988.5
20260906094103 21 48 8.0 19.3 0.00 0.00 0.00 89 988.6
20260906093603 21 45 9.7 19.3 0.00 0.00 0.00 89 988.6
20260906093102 21 46 6.4 16.1 0.00 0.00 0.00 89 988.5
20260906092603 21 35 8.0 20.9 0.00 0.00 0.00 89 988.5
20260906092103 21 31 4.8 20.9 0.00 0.00 0.00 89 988.5
20260906091603 21 9 4.8 14.5 0.00 0.00 0.00 89 988.8
20260906091103 21 16 8.0 12.9 0.00 0.00 0.00 89 988.8
20260906090603 21 14 6.4 12.9 0.00 0.00 0.00 89 988.8
20260906085603 21 9 6.4 14.5 0.00 0.00 0.00 89 988.8
20260906084603 21 345 4.8 11.3 0.00 0.00 0.00 88 988.6
20260906084103 21 351 6.4 14.5 0.00 0.00 0.00 88 988.6
20260906083604 21 356 6.4 14.5 0.00 0.00 0.00 88 988.7
20260906083104 21 351 4.8 12.9 0.00 0.00 0.00 88 988.6
20260906082603 21 4 4.8 11.3 0.00 0.00 0.00 88 988.7
20260906081103 21 346 4.8 11.3 0.00 0.00 0.00 88 988.6
20260906080604 21 348 4.8 12.9 0.00 0.00 0.00 88 988.6
20260906080103 21 332 4.8 12.9 0.00 0.00 0.00 88 988.5
20260906075603 21 343 6.4 12.9 0.00 0.00 0.00 88 988.4
20260906074603 21 3 4.8 11.3 0.00 0.00 0.00 88 988.4
20260906074103 21 5 4.8 11.3 0.00 0.00 0.00 88 988.3
20260906073603 21 4 4.8 11.3 0.00 0.00 0.00 88 988.4
20260906073103 21 21 4.8 11.3 0.00 0.00 0.00 88 988.5
20260906072103 21 1 6.4 12.9 0.00 0.00 0.00 88 988.5
20260906071104 21 356 4.8 11.3 0.00 0.00 0.00 87 988.5
20260906070603 21 6 4.8 11.3 0.00 0.00 0.00 87 988.5
20260906070104 21 354 6.4 11.3 0.00 0.00 0.00 87 988.5
20260906065104 21 3 6.4 12.9 0.00 0.00 0.00 87 988.7
20260906064104 21 2 4.8 12.9 0.00 0.00 0.00 87 988.7
20260906063604 21 1 4.8 12.9 0.00 0.00 0.00 87 988.7
20260906063103 21 344 4.8 12.9 0.00 0.00 0.00 87 988.7
20260906062603 21 3 4.8 11.3 0.00 0.00 0.00 87 988.8
20260906061604 21 346 4.8 12.9 0.00 0.00 0.00 87 988.9
20260906061103 21 6 4.8 11.3 0.00 0.00 0.00 87 988.8
20260906060604 21 28 4.8 12.9 0.00 0.00 0.00 87 988.8
20260906060104 21 345 4.8 11.3 0.00 0.00 0.00 87 988.8
20260906055604 21 11 4.8 11.3 0.00 0.00 0.00 87 988.7
20260906054603 21 2 4.8 11.3 0.00 0.00 0.00 87 988.8
20260906054104 21 358 4.8 12.9 0.00 0.00 0.00 87 988.6
20260906053603 21 346 3.2 9.7 0.00 0.00 0.00 87 988.6
20260906053103 21 357 4.8 11.3 0.00 0.00 0.00 87 988.6
20260906052103 21 9 4.8 9.7 0.00 0.00 0.00 87 988.5
20260906051604 21 350 4.8 11.3 0.00 0.00 0.00 87 988.5
20260906051104 21 357 6.4 12.9 0.00 0.00 0.00 87 988.6
20260906050104 21 27 6.4 12.9 0.00 0.00 0.00 87 988.6
20260906045603 21 358 4.8 11.3 0.00 0.00 0.00 87 988.6
20260906045103 21 356 3.2 9.7 0.00 0.00 0.00 87 988.5
20260906044604 21 357 3.2 14.5 0.00 0.00 0.00 87 988.5
20260906044104 21 3 4.8 14.5 0.00 0.00 0.00 87 988.5
20260906043603 21 10 4.8 14.5 0.00 0.00 0.00 86 988.4
20260906043104 21 20 4.8 12.9 0.00 0.00 0.00 86 988.3
20260906042604 21 26 4.8 12.9 0.00 0.00 0.00 86 988.2
20260906042104 21 24 9.7 19.3 0.00 0.00 0.00 86 988.2
20260906041603 21 0 8.0 16.1 0.00 0.00 0.00 86 988.1
20260906041103 21 2 8.0 16.1 0.00 0.00 0.00 86 988.1
20260906040604 21 24 9.7 20.9 0.00 0.00 0.00 86 988.2
20260906040104 21 5 8.0 14.5 0.00 0.00 0.00 87 988.3
20260906035104 21 27 8.0 16.1 0.00 0.00 0.00 87 988.3
20260906033604 21 18 6.4 14.5 0.00 0.00 0.00 87 988.2
20260906033104 21 8 8.0 16.1 0.00 0.00 0.00 87 988.1
20260906032604 21 351 4.8 12.9 0.00 0.00 0.00 87 988.0
20260906032104 22 356 6.4 12.9 0.00 0.00 0.00 86 988.0
20260906031604 22 11 6.4 14.5 0.00 0.00 0.00 86 987.9
20260906031103 22 339 4.8 14.5 0.00 0.00 0.00 86 987.9
20260906030104 22 1 6.4 14.5 0.00 0.00 0.00 86 987.8
20260906025104 22 14 9.7 16.1 0.00 0.00 0.00 86 987.6
20260906024604 22 12 4.8 16.1 0.00 0.00 0.00 86 987.5
20260906024104 22 22 8.0 14.5 0.00 0.00 0.00 86 987.4
20260906023604 22 30 8.0 12.9 0.00 0.00 0.00 86 987.4
20260906023103 22 58 4.8 11.3 0.00 0.00 0.00 86 987.3
20260906022604 23 29 4.8 11.3 0.00 0.00 0.00 86 987.2
20260906022104 23 3 8.0 19.3 0.00 0.00 0.00 85 987.2
20260906021603 23 21 8.0 16.1 0.00 0.00 0.00 85 987.1
20260906021104 23 10 6.4 14.5 0.00 0.00 0.00 85 987.1
20260906020604 23 34 9.7 19.3 0.00 0.00 0.00 85 987.1
20260906020104 23 30 8.0 19.3 0.00 0.00 0.00 85 986.9
20260906015604 23 29 4.8 12.9 0.00 0.00 0.00 85 986.9
20260906015104 23 4 8.0 14.5 0.00 0.00 0.00 85 986.7
20260906014604 24 351 4.8 11.3 0.00 0.00 0.00 85 986.6
20260906014102 24 5 4.8 16.1 0.00 0.00 0.00 84 986.4
20260906013601 24 25 8.0 19.3 0.00 0.00 0.00 84 986.4
20260906012601 25 8 8.0 16.1 0.00 0.00 0.00 84 986.2
20260906012101 25 24 8.0 16.1 0.00 0.00 0.00 83 986.1
20260906011601 25 4 9.7 22.5 0.00 0.00 0.00 83 986.1
20260906011101 25 355 9.7 16.1 0.00 0.00 0.00 83 986.0
20260906010601 25 13 8.0 14.5 0.00 0.00 0.00 83 986.0
20260906005601 26 16 6.4 22.5 0.00 0.00 0.00 82 985.5
20260906005101 26 8 9.7 20.9 0.00 0.00 0.00 82 985.4
20260906004601 26 14 6.4 16.1 0.00 0.00 0.00 82 985.2
20260906003601 26 6 8.0 16.1 0.00 0.00 0.00 81 985.0
20260906003101 26 359 4.8 19.3 0.00 0.00 0.00 81 985.0
20260906002601 27 1 8.0 16.1 0.00 0.00 0.00 81 984.9
20260906002101 27 358 4.8 14.5 0.00 0.00 0.00 80 984.7
20260906001601 27 29 8.0 22.5 0.00 0.00 0.00 80 984.6
20260906001101 27 16 8.0 19.3 0.00 0.00 0.00 79 984.5
20260906000601 27 7 9.7 19.3 0.00 0.00 0.00 79 984.4
20260905235601 28 359 8.0 19.3 0.00 0.00 0.00 79 984.2
20260905235101 28 0 8.0 19.3 0.00 0.00 0.00 78 984.0
20260905234601 28 27 8.0 19.3 0.00 0.00 0.00 78 983.9
20260905234101 29 355 8.0 19.3 0.00 0.00 0.00 77 983.8
20260905233601 30 11 8.0 19.3 0.00 0.00 0.00 76 983.6
20260905232101 31 352 9.7 19.3 0.00 0.00 0.00 71 982.8
20260905231601 31 332 9.7 16.1 0.00 0.00 0.00 69 982.5
20260905231101 31 333 9.7 19.3 0.00 0.00 0.00 69 982.4
20260905230601 31 348 9.7 22.5 0.00 0.00 0.00 68 982.4
20260905225602 31 309 8.0 19.3 0.00 0.00 0.00 67 982.3
20260905225101 31 331 8.0 16.1 0.00 0.00 0.00 68 982.1
20260905224602 31 320 9.7 20.9 0.00 0.00 0.00 68 982.0
20260905224101 31 314 9.7 24.1 0.00 0.00 0.00 67 982.0
20260905223601 32 333 11.3 24.1 0.00 0.00 0.00 67 982.0
20260905223101 32 315 8.0 22.5 0.00 0.00 0.00 66 982.0
20260905222102 32 328 8.0 20.9 0.00 0.00 0.00 66 982.0
20260905221602 32 325 9.7 20.9 0.00 0.00 0.00 66 981.9
20260905221101 32 336 9.7 22.5 0.00 0.00 0.00 66 981.9
20260905220602 32 319 11.3 24.1 0.00 0.00 0.00 65 981.8
20260905215602 32 306 12.9 22.5 0.00 0.00 0.00 67 981.8
20260905215101 32 296 8.0 20.9 0.00 0.00 0.00 67 981.7
20260905214602 32 295 6.4 16.1 0.00 0.00 0.00 67 981.6
20260905214101 32 300 11.3 19.3 0.00 0.00 0.00 66 981.7
20260905213601 32 303 9.7 22.5 0.00 0.00 0.00 66 981.4
20260905212601 32 337 3.2 11.3 0.00 0.00 0.00 67 981.5
20260905211601 32 292 8.0 16.1 0.00 0.00 0.00 67 981.5
20260905211101 32 280 8.0 12.9 0.00 0.00 0.00 69 981.8
20260905210602 32 321 6.4 16.1 0.00 0.00 0.00 69 981.8
20260905205601 32 308 8.0 16.1 0.00 0.00 0.00 67 981.6
20260905205101 32 323 4.8 14.5 0.00 0.00 0.00 67 981.3
20260905204602 32 315 4.8 12.9 0.00 0.00 0.00 68 981.6
20260905204102 32 290 4.8 19.3 0.00 0.00 0.00 70 981.9
20260905203101 32 298 4.8 12.9 0.00 0.00 0.00 71 981.8
20260905202102 31 301 4.8 11.3 0.00 0.00 0.00 74 982.0
20260905201602 31 279 6.4 11.3 0.00 0.00 0.00 74 982.3
20260905201102 31 298 4.8 12.9 0.00 0.00 0.00 75 982.2
20260905200604 31 289 4.8 11.3 0.00 0.00 0.00 74 982.2
20260905195602 32 269 3.2 16.1 0.00 0.00 0.00 75 982.2
20260905195102 32 291 8.0 14.5 0.00 0.00 0.00 69 981.9
20260905194602 33 285 8.0 16.1 0.00 0.00 0.00 65 981.4
20260905194102 33 316 6.4 14.5 0.00 0.00 0.00 65 981.4
20260905193602 33 323 4.8 11.3 0.00 0.00 0.00 67 981.5
20260905193102 32 267 3.2 11.3 0.00 0.00 0.00 67 981.7
20260905192102 33 294 4.8 11.3 0.00 0.00 0.00 66 981.6
20260905191102 33 255 4.8 11.3 0.00 0.00 0.00 64 981.9
20260905190601 33 316 6.4 19.3 0.00 0.00 0.00 65 982.1
20260905185602 33 217 3.2 11.3 0.00 0.00 0.00 65 981.7
20260905185102 33 308 8.0 16.1 0.00 0.00 0.00 63 981.9
20260905184601 33 284 8.0 14.5 0.00 0.00 0.00 62 981.8
20260905184102 33 288 9.7 14.5 0.00 0.00 0.00 62 981.9
20260905183602 33 268 6.4 12.9 0.00 0.00 0.00 63 981.8
20260905183102 32 292 6.4 12.9 0.00 0.00 0.00 64 981.9
20260905182602 32 281 3.2 12.9 0.00 0.00 0.00 65 982.1
20260905182102 32 254 4.8 11.3 0.00 0.00 0.00 66 982.3
20260905181601 32 280 8.0 14.5 0.00 0.00 0.00 65 982.3
20260905181101 32 305 9.7 16.1 0.00 0.00 0.00 64 982.2
20260905180602 33 281 6.4 14.5 0.00 0.00 0.00 65 982.1
20260905175602 33 290 4.8 14.5 0.00 0.00 0.00 65 982.1
20260905175102 33 301 4.8 20.9 0.00 0.00 0.00 65 982.2
20260905174602 33 337 8.0 20.9 0.00 0.00 0.00 65 982.3
20260905174102 33 304 4.8 12.9 0.00 0.00 0.00 63 982.2
20260905173602 33 290 6.4 16.1 0.00 0.00 0.00 64 982.2
20260905173102 33 297 4.8 12.9 0.00 0.00 0.00 64 982.2
20260905172601 33 303 8.0 19.3 0.00 0.00 0.00 62 982.1
20260905172102 33 291 8.0 12.9 0.00 0.00 0.00 62 982.1
20260905171602 32 298 11.3 27.4 0.00 0.00 0.00 62 982.1
20260905171102 32 275 9.7 16.1 0.00 0.00 0.00 62 982.3
20260905170602 32 302 8.0 16.1 0.00 0.00 0.00 63 982.4
20260905165602 32 321 4.8 16.1 0.00 0.00 0.00 64 982.5
20260905165102 32 297 8.0 19.3 0.00 0.00 0.00 63 982.3
20260905164602 32 284 9.7 16.1 0.00 0.00 0.00 63 982.4
20260905164102 32 244 3.2 12.9 0.00 0.00 0.00 64 982.5
20260905163602 32 292 8.0 14.5 0.00 0.00 0.00 62 982.6
20260905163102 32 301 8.0 14.5 0.00 0.00 0.00 62 982.7
20260905162602 32 267 4.8 19.3 0.00 0.00 0.00 64 982.6
20260905162103 32 311 6.4 14.5 0.00 0.00 0.00 64 982.7
20260905161603 32 273 8.0 14.5 0.00 0.00 0.00 65 982.7
20260905161102 32 266 6.4 12.9 0.00 0.00 0.00 66 982.7
20260905160602 32 270 4.8 12.9 0.00 0.00 0.00 66 982.6
20260905155603 32 267 6.4 14.5 0.00 0.00 0.00 65 982.9
20260905155103 32 275 8.0 14.5 0.00 0.00 0.00 67 982.9
20260905154602 31 283 3.2 9.7 0.00 0.00 0.00 68 982.9
20260905154103 31 234 6.4 14.5 0.00 0.00 0.00 68 982.9
20260905153602 31 243 4.8 14.5 0.00 0.00 0.00 69 983.0
20260905153102 31 277 4.8 12.9 0.00 0.00 0.00 70 983.0
20260905152602 31 232 4.8 11.3 0.00 0.00 0.00 70 983.1
20260905152103 31 266 4.8 12.9 0.00 0.00 0.00 72 983.1
20260905151602 30 242 4.8 12.9 0.00 0.00 0.00 72 983.1
20260905151102 30 214 8.0 16.1 0.00 0.00 0.00 72 983.2
20260905150602 30 240 8.0 14.5 0.00 0.00 0.00 72 983.2
20260905145602 30 238 8.0 16.1 0.00 0.00 0.00 73 983.2
20260905145102 30 247 6.4 14.5 0.00 0.00 0.00 73 983.2
20260905144604 30 253 4.8 12.9 0.00 0.00 0.00 74 983.2
20260905144103 30 230 8.0 16.1 0.00 0.00 0.00 74 983.4
20260905143102 29 272 4.8 14.5 0.00 0.00 0.00 75 983.6
20260905142602 29 232 3.2 14.5 0.00 0.00 0.00 75 983.7
20260905142102 29 219 8.0 12.9 0.00 0.00 0.00 75 983.8
20260905141603 28 247 4.8 11.3 0.00 0.00 0.00 77 984.0
20260905141102 28 223 6.4 14.5 0.00 0.00 0.00 78 984.1
20260905140603 28 231 8.0 12.9 0.00 0.00 0.00 78 984.2
20260905135603 28 225 8.0 12.9 0.00 0.00 0.00 78 984.3
20260905135102 28 217 8.0 11.3 0.00 0.00 0.00 78 984.3
20260905134102 28 249 3.2 4.8 0.00 0.00 0.00 79 984.2
20260905133602 28 230 3.2 11.3 0.00 0.00 0.00 80 984.4
20260905132603 27 224 3.2 9.7 0.00 0.00 0.00 82 984.7
20260905132102 27 221 6.4 12.9 0.00 0.00 0.00 81 984.8
20260905131602 27 221 8.0 12.9 0.00 0.00 0.00 82 984.9
20260905130602 27 227 4.8 9.7 0.00 0.00 0.00 83 985.0
20260905125603 27 227 4.8 12.9 0.00 0.00 0.00 81 984.8
20260905125103 27 217 3.2 11.3 0.00 0.00 0.00 81 984.8
20260905124602 26 213 4.8 8.0 0.00 0.00 0.00 82 984.8
20260905124103 26 225 4.8 9.7 0.00 0.00 0.00 83 984.9
20260905123602 26 226 3.2 4.8 0.00 0.00 0.00 84 985.1
20260905122602 25 201 3.2 8.0 0.00 0.00 0.00 85 985.3
20260905122102 25 176 3.2 8.0 0.00 0.00 0.00 86 985.5
20260905121102 25 0 0.0 3.2 0.00 0.00 0.00 86 985.5